星链-32312 (STARLINK-32312)

导读

STARLINK-32312是美国太空探索技术公司(SpaceX)星链(Starlink)互联网星座中的一颗低轨通信卫星,于2024年10月30日发射升空。星链项目旨在通过近地轨道卫星组网,为全球尤其是偏远地区提供高速低延迟的宽带互联网服务。该卫星运行在近地轨道,作为星链星座的组成部分,补充完善了全球覆盖的卫星互联网网络,增强星座通信服务能力,推动全球互联网接入覆盖的进一步拓展。

基本信息
目录编号:
61711
目录名称:
STARLINK-32312
国际标识:
2024-196E
轨道中心:
EARTH
卫星名称:
星链-32312
卫星全名:
星链-32312 (STARLINK-32312)
卫星状态:
在轨 (已飞行674 天)
发射日期:
2024-10-30 UTC
国别 :
美国 (US)
星等 :
--
轨道信息
数据来源 国际轨道数据 AOE轨道数据
星历时间 2026-09-04T00:11:28+0800
16小时前
查看轨道信息
2026-08-31T16:00:00+0800
4天前
查看轨道信息
半长轴 6840.859km 6840.885km
偏心率 0.0000798 0.0001065
轨道倾角 53.162° 53.159°
近地点辐角 88.804° 28.107°
升交点赤经 352.014° 7.632°
平近点角 271.305° 224.984°
近地点 462.176km 462.019km
远地点 463.268km 463.477km
周期 93.848分钟 93.849分钟
每日圈数 15.34394 15.34385
详细信息
固有亮度:
5
最大亮度:
2.5
卫星平台:
Starlink V1.0
覆盖范围:
全球
运营商:
太空探索技术公司
运营商所在国:
美国
制造商(研发单位):
太空探索技术公司
制造商所在国:
美国
使用方式:
暂无
卫星简介
Starlink 计划是 SpaceX 推出的全球卫星互联网项目,通过发射低轨道卫星,为全球尤其是偏远地区提供高速、低延迟的互联网服务。自 2019 年起,Starlink 已部署数千颗卫星,旨在缩小全球数字鸿沟,推动互联网普及。该项目还为军事、航空等行业提供通信支持,带来广泛经济效益。
2D轨道图
3D轨道图
轨道高度分析图
轨道倾角分析图
轨道综合分析图
查看轨道综合分析图